Regional Weather Roundup
Issued by NWS

Home | Current Version | Previous Version | Text Only | Print | Product List | Glossary On
Versions: 1 2 3 4 5 6 7 8 9 10 11 12 13 14 15 16 17 18 19 20 21 22 23 24 25 26 27 28 29 30 31 32 33 34 35 36 37 38 39 40 41 42 43 44 45 46 47 48 49 50
000
ASUS42 KTBW 281210
RWRFL
FLORIDA REGIONAL WEATHER ROUNDUP
NATIONAL WEATHER SERVICE TAMPA BAY RUSKIN FL
800 AM EDT MON JUL 28 2014

NOTE: "FAIR" INDICATES FEW OR NO CLOUDS BELOW 12,000 FEET WITH NO
SIGNIFICANT WEATHER AND/OR OBSTRUCTIONS TO VISIBILITY.


FLZ001>010-012>015-112-114-115-281300-
PANHANDLE FLORIDA

CITY           SKY/WX    TMP DP  RH WIND       PRES   REMARKS
PENSACOLA      SUNNY     79  77  94 W10       30.04R
PENSACOLA NAS  MOSUNNY   81  78  91 W5        30.04R
MILTON NAS     MOSUNNY   79  76  90 W9        30.04R
CRESTVIEW      SUNNY     79  78  97 W6        30.04S
DUKE FIELD       N/A    N/A N/A N/A MISG        N/A
VALPARAISO     MOSUNNY   80  78  94 W5        30.02S
TRI COUNTY     FAIR      78  77  96 SW3       30.02S
PANAMA CITY    FAIR      82  79  90 SW7       30.01S
TYNDALL AFB    SUNNY     84  80  89 W12       30.03S HX  97
APALACHICOLA   SUNNY     79  78  97 W6        30.03R

STATION/POSITION SKY/WX   TEMP    WIND        PRES    WAVE   SWELL
                          AIR SEA DIR/SP/G            HT/PER HT/PER
                          (F)     (DEG/KT/KT) (MB)    (FT/S) (FT/S)
30.1N   87.6W              83 83  280/ 17/ 19 1017.1R   3/ 5
29.2N   88.2W              85 85  280/ 17/ 19 1018.3R
28.8N   86.0W              84 85  270/ 16/ 17 1017.6R   4/ 5
PANAMA CITY BEAC           83 83  280/ 14/ 15 1016.6R
CAPE SAN BLAS    NOT AVBL
TOWER C                    83     280/ 14/ 16 1017.2R
28.5N   84.5W              84 85  270/ 12/ 16 1017.9R   3/ 5

$$
FLZ011-016>038-118-127-128-134-139-239-281300-
NORTH FLORIDA

CITY           SKY/WX    TMP DP  RH WIND       PRES   REMARKS
MARIANNA       SUNNY     79  79 100 W7        30.01R
TALLAHASSEE    MOSUNNY   79  78  96 W3        30.01F
PERRY          MOSUNNY   79  77  94 SW7       30.03S
CROSS CITY       N/A     80  75  84 CALM      30.03S
GAINESVILLE    SUNNY     79  76  90 W6        30.03S
MAYPORT NAS    MOSUNNY   82  75  79 SW9       29.99S
JACKSONVILLE   PTSUNNY   79  77  94 W9        29.99S
JAX NAS        PTSUNNY   83  76  79 W9        30.00F
JAX CRAIG      MOSUNNY   81  75  82 W12       29.99S
JAX CECIL      MOSUNNY   77  77 100 SW8       30.01S
FERNANDINA BEA FAIR      81  75  83 SW9       29.97S
ST AUGUSTINE   SUNNY     81  76  84 SW9       30.02S HAZE

STATION/POSITION SKY/WX   TEMP    WIND        PRES    WAVE   SWELL
                          AIR SEA DIR/SP/G            HT/PER HT/PER
                          (F)     (DEG/KT/KT) (MB)    (FT/S) (FT/S)
SHELL POINT      NOT AVBL
KEATON BEACH               83     270/ 14/ 16 1016.9F
CEDAR KEY                  84     290/  8/ 11 1017.6R
FERNANDINA                 80 86  240/ 12/ 15 1014.6F
30.7N   81.3W                 85                N/A     3/ 3
MAYPORT                    81 86  260/ 12/ 15   N/A
31.4N   80.9W              83 84  270/ 16/ 19 1013.9R   3/ 4   2/ 8
ST AUGUSTINE               81     240/  7/  9 1017.1R

$$
FLZ040-043>046-052-053-057-058-063-144-281300-
INTERIOR CENTRAL FLORIDA

CITY           SKY/WX    TMP DP  RH WIND       PRES   REMARKS
OCALA          MOSUNNY   77  68  73 CALM      30.05S
LEESBURG       MOSUNNY   81  76  84 SW6       30.06F
SANFORD        SUNNY     81  77  89 SW7       30.05S
ORLANDO EXEC   MOSUNNY   81  76  84 W9        30.06S
ORLANDO INTL   PTSUNNY   79  75  87 SW7       30.06S
KISSIMMEE      SUNNY     79  79 100 SW5       30.07R
WINTER HAVEN   MOSUNNY   79  75  87 SW7       30.09R
LAKELAND       SUNNY     75  75 100 S3        30.08S
BARTOW         MOSUNNY   77 N/A N/A CALM      30.09R
OKEECHOBEE       N/A     77  75  94 MISG      30.09R

$$
FLZ041-047-054-059-064-141-147-281300-
EAST CENTRAL FLORIDA

CITY           SKY/WX    TMP DP  RH WIND       PRES   REMARKS
ORMOND BEACH   MOSUNNY   77  75  94 W5        30.04F
DAYTONA BEACH  MOSUNNY   79  76  90 W6        30.04F
DELAND         MOSUNNY   79  75  89 MISG      30.06S
NEW SMYRNA BEA MOSUNNY   81  77  89 SW6       30.05S
JFK SPACE CTR  MOSUNNY   80  80 100 W8        30.05S
TITUSVILLE     MOSUNNY   79  75  89 W7        30.06R
CAPE CANAVERAL MOSUNNY   82  77  84 W12       30.04S
PATRICK AFB    SUNNY     81  78  88 W12       30.06R
MELBOURNE      SUNNY     79  76  90 SW6       30.06S
VERO BEACH     SUNNY     78  77  96 SW6       30.07R
FT PIERCE      SUNNY     79  75  87 SW6       30.07R
STUART         MOSUNNY   79  75  89 SW5       30.08S

STATION/POSITION SKY/WX   TEMP    WIND        PRES    WAVE   SWELL
                          AIR SEA DIR/SP/G            HT/PER HT/PER
                          (F)     (DEG/KT/KT) (MB)    (FT/S) (FT/S)
28.5N   80.2W              83 84  260/ 14/ 16 1017.5R
28.9N   78.5W              84 84  270/ 14/ 17 1016.9S   5/ 5   2/ 9
TRIDENT PIER               82 86  240/  8/ 11 1017.1S
28.4N   80.5W                 84                N/A     1/10
27.6N   80.2W                 81                N/A     1/ 9

$$
FLZ050-056-061-142-242-148-248-149-249-151-251-155-255-
160-260-281300-
WEST CENTRAL FLORIDA

CITY           SKY/WX    TMP DP  RH WIND       PRES   REMARKS
CRYSTAL RIVER  FAIR      84  73  70 W8        30.05S
INVERNESS      FAIR      79  73  83 CALM      30.06S
BROOKSVILLE    MOSUNNY   79  75  87 CALM      30.07S
ZEPHYRHILLS    FAIR      72  72 100 SW5       30.08S
CLEARWATER     MOSUNNY   83  75  77 W6        30.07R
TAMPA INTL     PTSUNNY   84  74  71 W8        30.07S
TAMPA EXEC     MOSUNNY   79  77  94 CALM      30.08S
PLANT CITY     MOSUNNY   79 N/A N/A CALM      30.09S
MACDILL AFB    MOSUNNY   83  78  85 W5        30.07S
ST PETERSBURG  MOSUNNY   85  74  69 W6        30.06R
SARASOTA       MOSUNNY   86  73  65 W10       30.07R
VENICE         FAIR      84  75  74 W9        30.09R

STATION/POSITION SKY/WX   TEMP    WIND        PRES    WAVE   SWELL
                          AIR SEA DIR/SP/G            HT/PER HT/PER
                          (F)     (DEG/KT/KT) (MB)    (FT/S) (FT/S)
CEDAR KEY                  84     290/  8/ 11 1017.6R
28.5N   84.5W              84 85  270/ 12/ 16 1017.9R   3/ 5
27.3N   84.3W                 87                N/A     2/ 7
CLEARWATER BEACH           85 89  260/ 12/ 15 1017.9S
MIDDLE TAMPA BAY           85     300/ 12/ 14 1018.6R
VENICE                     86 90  270/ 10/ 11 1018.2R

$$
FLZ066-069-070-075>078-162-262-165-265-281300-
SOUTHWEST FLORIDA AND KEYS

CITY           SKY/WX    TMP DP  RH WIND       PRES   REMARKS
PUNTA GORDA    SUNNY     82  78  88 CALM      30.09S
FT MYERS       SUNNY     81  77  88 CALM      30.08R
SOUTHWEST INTL SUNNY     79  76  90 S5        30.08S
NAPLES         MOSUNNY   81  80  97 CALM      30.09R
MARATHON       SUNNY     85  77  77 CALM      30.07R HX  95
KEY WEST NAS   MOSUNNY   86  77  74 CALM      30.07R HX  97
KEY WEST INTL  SUNNY     85  76  74 SE5       30.08R

STATION/POSITION SKY/WX   TEMP    WIND        PRES    WAVE   SWELL
                          AIR SEA DIR/SP/G            HT/PER HT/PER
                          (F)     (DEG/KT/KT) (MB)    (FT/S) (FT/S)
VENICE                     86 90  270/ 10/ 11 1018.2R
NAPLES                     85 92  240/  5/  6 1019.3R
DRY TORTUGAS               85     120/  4/  4 1018.6R
SAND KEY                   84     130/  6/  7 1018.3R
SOMBRERO KEY               87     100/  2/  3 1019.1R
LONG KEY                   84 89  150/  1/  2 1018.8R
MOLASSES REEF              85 87   CALM  /  1 1018.5R

$$
FLZ067-068-071>074-168-172>174-281300-
SOUTHEAST FLORIDA

CITY           SKY/WX    TMP DP  RH WIND       PRES   REMARKS
W PALM BEACH   MOSUNNY   80  76  87 CALM      30.07R
FT LAUDER-EXEC MOSUNNY   83  78  85 W7        30.09R
FT LAUDERDALE  PTSUNNY   84  76  76 NW5       30.08R
POMPANO BEACH    N/A     84  77  79 W6        30.09R
PEMBROKE PINES SUNNY     82  79  90 W3        30.10R
OPA LOCKA      SUNNY     83  77  82 W3        30.09R
MIAMI          PTSUNNY   83  75  77 W3        30.09R
WEST KENDALL   SUNNY     83  76  79 CALM      30.09R
HOMESTEAD      NOT AVBL

STATION/POSITION SKY/WX   TEMP    WIND        PRES    WAVE   SWELL
                          AIR SEA DIR/SP/G            HT/PER HT/PER
                          (F)     (DEG/KT/KT) (MB)    (FT/S) (FT/S)
PORT EVERGLADES            83     290/  4/  6 1018.8
VIRGINIA KEY               84 89  260/  7/  9   N/A
LAKE WORTH                 81 82              1018.3R
FOWEY ROCKS                85 87  260/  7/  9 1019.1R
SETTLEMENT POINT           85     240/ 13/ 15 1019.2R

$$



USA.gov is the U.S. government's official web portal to all federal, state and local government web resources and services.